Theta_e
286 286 286 286 285 285 285 284 284 285 285 286 286 286 286 286 286 287 288 289 289 289 289 289 293 298 301 300 297 297 301 307 307 306 299 298 296 298
285 285 285 285 285 285 285 284 283 283 283 284 285 285 286 286 286 286 287 287 288 289 289 289 289 290 296 299 300 296 297 303 306 306 305 297 296 296
285 285 285 284 284 284 284 284 283 282 282 283 283 283 285 286 286 285 286 286 287 287 288 288 288 288 289 292 298 299 296 295 297 301 303 299 295 296
284 284 284 284 284 283 283 283 282 281 280 281 282 281 281 283 285 286 284 284 284 286 287 287 287 287 288 289 290 296 298 297 295 295 295 294 294 294
283 283 283 283 283 282 282 281 281 280 279 279 280 279 279 280 281 282 284 284 283 284 285 286 287 287 287 287 288 289 293 297 298 296 295 295 294 293
283 283 282 282 282 281 281 280 279 278 277 277 277 278 278 278 278 279 280 282 283 283 284 284 285 286 287 287 287 287 288 290 296 297 296 295 295 294
282 282 282 282 281 281 279 278 276 275 275 275 275 276 277 277 277 277 277 278 280 279 280 282 285 286 287 286 286 287 287 287 288 294 296 296 295 294
282 281 281 281 280 279 278 276 274 274 274 274 274 275 276 276 276 276 276 276 276 278 278 279 279 283 284 286 286 286 287 287 287 287 292 295 296 295
281 281 280 279 278 277 276 274 273 273 274 274 274 274 275 275 275 275 276 276 276 277 277 277 278 279 280 281 282 285 286 286 286 287 289 293 294 295
280 280 280 279 277 276 274 274 274 274 274 274 274 275 275 275 276 277 277 277 277 277 277 277 278 278 278 278 280 281 283 285 287 286 286 287 293 295
280 280 279 278 276 274 275 275 275 275 276 276 276 276 277 277 277 278 278 277 278 277 277 277 277 277 277 277 277 280 281 284 284 285 286 286 287 293
279 279 277 274 274 274 275 275 276 277 277 277 277 277 276 276 276 276 276 276 276 276 277 277 277 276 276 277 280 281 282 284 285 285 285 285 286 287
277 276 275 274 274 275 275 276 275 275 275 274 274 275 276 276 276 276 276 276 275 275 276 276 276 276 276 276 276 277 278 281 284 286 286 287 287 286
275 274 274 274 273 273 274 274 272 272 273 273 274 275 275 276 276 276 275 275 275 275 276 275 275 275 275 275 275 276 275 276 280 284 285 285 287 288
273 273 274 273 273 274 274 274 273 272 271 271 271 272 273 274 275 276 276 275 275 276 276 276 275 275 275 274 275 275 275 275 276 280 285 285 285 286
273 273 273 273 273 273 273 273 272 272 271 270 269 270 273 274 274 274 274 275 273 276 278 277 275 275 275 275 274 274 274 274 275 279 283 285 285 286
273 273 273 272 272 272 272 272 271 271 270 268 269 270 272 272 273 273 272 273 273 274 276 279 276 275 275 274 274 274 274 274 274 276 280 285 285 286
272 272 272 271 271 271 271 271 271 270 270 270 270 269 269 270 271 272 272 273 273 274 274 277 276 275 275 275 275 275 274 274 275 277 282 284 285 286
271 271 271 271 270 271 270 270 270 270 270 270 270 270 269 268 269 270 271 271 273 274 275 275 275 276 277 276 280 278 278 277 276 278 283 283 284 285
271 270 270 270 270 270 270 270 270 270 270 270 270 270 268 268 268 270 271 270 272 273 275 277 277 278 280 279 279 280 280 281 280 280 281 283 284 284
270 270 270 270 270 270 270 270 270 270 270 269 270 269 268 268 268 269 270 271 272 272 273 275 277 279 280 281 280 282 283 283 284 283 284 284 284 284
270 270 269 269 269 269 269 269 270 270 269 269 269 269 269 268 269 269 270 271 272 272 273 276 277 279 280 281 282 283 283 283 284 284 284 285 285 285
269 269 269 269 269 269 269 269 269 269 269 269 269 269 269 268 269 270 270 271 272 273 274 275 277 278 279 280 280 281 282 282 282 283 283 283 284 284
Wind_Speed
22 24 26 28 30 30 29 28 24 29 36 30 33 30 44 49 50 46 44 41 39 37 35 33 31 32 36 37 36 34 34 36 37 35 33 31 30 29
21 23 25 28 30 32 33 33 31 26 33 31 43 46 48 48 48 50 48 46 44 41 40 39 37 34 32 36 39 37 37 35 37 36 34 33 32 31
23 25 27 29 32 33 34 34 32 27 30 48 39 40 45 48 51 48 48 48 48 45 42 41 41 40 38 34 36 41 40 40 40 39 37 36 34 32
26 28 30 31 33 33 33 34 34 32 29 40 45 35 33 38 44 50 49 44 48 48 45 42 42 42 41 40 37 37 42 44 42 41 42 41 37 35
28 30 31 33 34 34 34 35 34 34 31 33 48 37 35 31 33 38 43 47 45 39 40 41 41 40 43 43 42 41 38 43 46 44 41 42 42 39
30 32 33 34 34 36 37 36 34 32 28 30 36 39 34 31 29 32 36 31 37 31 29 31 39 41 40 42 43 43 42 39 42 46 46 42 41 42
32 33 34 35 36 36 36 34 32 31 28 31 34 35 33 30 29 30 34 37 41 35 38 30 24 26 27 32 35 39 42 42 40 40 46 47 43 42
33 34 35 36 35 35 34 32 26 28 31 31 33 33 33 31 32 31 31 34 41 27 25 40 34 35 35 28 33 38 36 35 37 39 40 45 48 45
33 34 36 35 35 33 33 29 25 24 25 29 34 34 35 29 29 31 30 32 37 37 35 47 35 37 31 35 38 33 36 42 41 37 36 40 44 47
33 34 35 35 33 31 29 32 33 31 30 30 32 35 36 35 37 41 42 42 40 38 32 46 36 40 38 41 36 36 40 39 41 41 40 37 39 44
32 33 34 34 31 26 31 35 36 37 37 38 34 34 36 36 36 40 44 40 43 39 35 38 39 41 41 42 44 38 37 36 41 46 41 40 38 39
32 32 30 25 27 28 31 35 42 41 32 33 33 27 25 34 37 36 39 42 42 43 35 32 33 34 43 36 17 13 19 25 31 33 36 43 42 37
29 29 28 26 28 29 30 35 39 39 40 40 40 40 38 37 35 29 32 35 40 45 40 32 35 37 39 52 47 39 35 37 26 31 29 35 40 41
27 25 26 27 30 34 34 34 32 32 35 36 35 35 35 34 33 30 27 29 34 40 35 35 37 35 41 47 51 42 39 42 32 34 40 39 28 36
23 24 28 35 34 33 32 31 31 29 26 27 28 30 29 31 33 33 30 28 31 34 35 34 36 40 44 48 51 47 42 39 36 40 36 37 37 37
23 31 35 32 30 30 29 27 26 25 25 24 24 27 29 29 30 29 29 28 29 35 33 35 33 33 40 44 47 50 43 43 37 35 32 39 37 36
28 31 30 29 29 27 26 25 25 25 24 23 24 27 27 27 28 27 24 27 31 35 38 36 35 35 38 40 45 47 47 46 41 39 36 37 35 37
28 30 28 26 26 26 26 26 25 26 26 27 26 26 26 27 28 28 25 26 30 33 36 38 38 36 37 42 39 42 45 46 43 34 34 35 35 34
25 24 24 24 24 24 24 25 26 26 28 28 28 29 26 27 28 30 30 27 28 32 36 37 37 34 35 37 43 30 37 35 29 39 28 35 32 29
21 21 22 22 22 23 23 24 25 26 27 28 29 31 27 27 31 32 31 30 31 34 36 34 32 33 35 41 39 37 28 35 30 32 35 35 35 34
20 20 20 21 22 22 23 24 25 25 26 28 30 32 29 27 33 32 32 31 31 32 34 35 34 30 32 33 33 34 26 19 23 30 32 30 33 31
21 22 22 22 23 23 24 25 26 25 26 27 30 32 32 28 33 32 31 31 31 31 32 32 31 27 25 22 23 24 23 22 22 28 27 29 24 24
22 23 23 23 24 24 24 25 26 25 25 26 30 33 33 34 33 31 29 28 28 29 28 29 27 21 19 18 17 16 12 9 10 15 19 21 24 20
Wind_Direction
323 324 324 324 324 322 319 313 304 302 303 302 300 296 298 301 301 301 297 293 290 288 287 286 284 276 266 263 259 254 246 245 248 254 257 256 257 253
315 317 319 321 321 319 316 313 306 293 288 294 298 299 301 300 299 300 299 295 289 284 283 282 281 279 276 265 260 256 249 247 247 249 253 253 253 253
315 318 320 320 320 318 314 308 302 294 287 296 293 297 296 297 299 298 296 295 292 287 281 278 277 275 273 272 264 257 255 252 252 248 248 251 251 250
318 319 320 319 317 315 310 305 301 297 292 293 298 297 294 295 292 293 297 292 293 290 286 279 274 272 270 268 267 262 255 254 253 252 252 251 249 248
319 320 319 318 316 314 310 306 301 297 293 290 294 297 296 300 300 293 290 292 296 299 293 286 277 270 269 267 265 264 261 253 252 252 252 250 247 245
319 319 318 316 314 313 309 306 303 299 296 293 292 296 298 300 294 297 298 291 287 291 287 290 290 280 268 264 263 261 262 261 254 249 249 250 249 245
316 315 315 314 313 312 310 306 300 296 294 293 294 297 297 300 298 295 291 295 290 296 294 290 286 287 288 275 267 264 261 260 260 256 250 247 245 246
314 315 315 314 313 311 308 302 293 293 294 291 291 292 296 295 295 294 293 297 299 304 301 287 282 268 267 273 279 268 263 259 258 256 253 249 247 244
313 315 314 314 314 312 308 303 298 295 291 292 288 287 290 292 293 293 293 291 293 299 299 293 297 295 295 288 275 273 273 261 257 256 254 250 247 245
313 313 312 313 313 310 308 313 310 304 297 293 289 291 292 294 296 298 297 297 294 294 295 288 297 292 293 291 287 281 266 267 261 254 255 254 248 244
312 312 311 311 315 313 307 303 304 304 308 308 293 288 283 283 283 286 285 286 285 284 285 284 291 293 298 296 296 285 275 271 264 263 254 252 251 246
307 309 312 306 305 307 305 305 304 304 306 308 301 294 290 289 289 282 282 279 281 285 284 283 289 293 301 296 301 283 289 271 279 276 266 256 250 247
307 308 307 309 309 306 303 296 294 299 294 291 287 287 291 294 296 291 284 280 281 280 287 284 285 286 279 285 289 293 291 272 271 271 274 256 245 242
305 304 310 306 301 306 307 307 305 300 293 297 296 295 297 299 298 298 282 274 276 279 292 283 277 276 277 281 285 288 285 276 268 269 267 266 261 245
304 305 289 302 310 313 317 315 312 311 307 304 302 299 297 297 298 301 296 287 283 283 286 286 275 277 273 273 279 281 285 281 276 259 264 261 264 258
309 297 304 309 312 316 320 322 324 322 318 312 306 304 305 307 306 308 306 301 294 292 292 295 289 283 277 277 276 277 275 273 271 256 271 253 262 253
288 297 307 312 317 321 325 330 333 334 330 323 316 316 314 315 313 314 304 302 294 295 302 305 303 298 287 283 273 272 271 269 270 263 261 247 248 249
292 303 307 313 317 322 327 331 336 338 337 331 331 327 322 320 318 314 311 303 298 297 298 306 304 299 289 287 275 272 272 260 259 248 253 248 247 247
293 299 305 310 316 320 324 328 332 337 337 339 337 335 330 326 321 317 315 311 304 302 300 301 296 289 277 267 300 278 277 272 249 246 244 238 237 239
292 297 302 307 313 316 321 324 327 332 336 338 339 340 333 323 321 321 317 312 309 310 309 308 301 295 279 278 283 294 289 268 252 245 252 249 252 259
292 295 299 304 309 312 317 321 324 328 334 337 339 341 337 325 320 323 320 319 318 313 306 309 309 306 298 302 279 294 300 268 253 254 240 243 244 248
288 292 296 301 305 310 313 317 318 323 331 334 336 340 341 329 329 328 325 322 320 317 312 315 315 311 307 306 294 288 267 273 251 243 230 236 236 230
285 289 294 299 302 306 308 313 314 319 326 330 335 338 340 339 335 331 328 326 325 324 323 320 319 313 312 310 307 299 296 288 262 251 241 238 232 237